Flag for U.S.A. Weather past 2 weeks in Barrow, Alaska, U.S.A.

Now
42 °F

Fog.


Feels Like: 34 °F
Forecast: 38 / 40 °F
Wind: 18 mph from West

Location: Post Rogers Memorial Airport

Current Time: Aug 3, 2015 at 8:32:41 PM

Latest Report: Aug 3, 2015 at 7:53 PM


Visibility: 3 mi

Pressure: 29.86 "Hg

Humidity: 96%

Dew point: 41 °F

Location of BarrowLocation

Historic Weather in Barrow — Graph

°F

Barrow temperature yesterday

Maximum temperature yesterday: 51 °F (at 3:53 PM)
Minimum temperature yesterday: 34 °F (at 1:53 AM)
Average temperature yesterday: 42 °F

Past Weeks' High & Low Weather Summary

 TemperatureHumidityPressure
High53 °F (Jul 30, 8:53 PM)100% (Jul 20, 12:53 AM)30.16 "Hg (Jul 20, 12:53 AM)
Low31 °F (Jul 30, 1:53 AM)63% (Jul 30, 5:53 PM)29.65 "Hg (Jul 31, 5:53 PM)
Average39 °F92%29.95 "Hg
* Reported Jul 19 6:53 PM — Aug 3 6:53 PM, Barrow, Weather by CustomWeather, © 2015

Note: Actual official high and low records may vary slightly from our data, if they occured in-between our weather recording intervals... More about our weather records

Advertising

Barrow weather history for previous 24 hours

 ConditionsComfort  
Time TempWeatherWind HumidityBarometerVisibility
6:53 PM
Mon, Aug 3
43 °FFog.16 mph97%29.85 "Hg2 mi
5:53 PM43 °FFog.20 mph100%29.84 "Hg2 mi
4:53 PM44 °FFog.18 mph96%29.83 "Hg3 mi
3:53 PM44 °FLight rain. Fog.18 mph96%29.83 "Hg1 mi
2:53 PM44 °FLight rain. Fog.18 mph100%29.82 "Hg1 mi
2:00 PM45 °FLight rain. Fog.16 mph100%29.81 "Hg1 mi
12:53 PM44 °FFog.13 mph100%29.81 "Hg1 mi
11:53 AM43 °FFog.13 mph100%29.81 "Hg1 mi
10:53 AM43 °FOvercast.13 mph97%29.82 "Hg7 mi
9:53 AM43 °FMostly cloudy.12 mph93%29.81 "Hg7 mi
8:53 AM42 °FFog.16 mph96%29.81 "Hg5 mi
7:53 AM42 °FFog.15 mph100%29.80 "Hg4 mi
6:53 AM42 °FFog.15 mph96%29.79 "Hg3 mi
5:53 AM43 °FLight rain. Fog.16 mph97%29.78 "Hg3 mi
4:53 AM43 °FLight rain. Fog.17 mph97%29.77 "Hg3 mi
3:53 AM43 °FFog.18 mph100%29.75 "Hg1 mi
3:03 AM43 °FQuite cool.18 mph100%N/AN/A
2:53 AM43 °FLight rain. Fog.20 mph100%29.74 "Hg1 mi
1:53 AM44 °FLight rain. Fog.23 mph100%29.72 "Hg2 mi
12:53 AM44 °FRain. Fog.17 mph100%29.72 "Hg2 mi
12:20 AM44 °FLight rain. Fog.18 mph100%29.72 "Hg1 mi
11:53 PM
Sun, Aug 2
44 °FLight rain. Fog.15 mph100%29.71 "Hg1 mi
10:53 PM44 °FFog.16 mph100%29.71 "Hg0 mi
9:53 PM45 °FFog.15 mph97%29.71 "Hg2 mi
8:53 PM45 °FFog.17 mph97%29.70 "Hg3 mi
Weather by CustomWeather, © 2015

See weather overviewHow to use our weather pages